STARLINK-36927

Last updated on Fri Mar 27 2026 00:02:06 GMT+0000 (Coordinated Universal Time)

1 67941U 26037K 26085.50002314 .00160419 00000+0 26917-2 0 9998 2 67941 43.0002 97.0995 0001205 265.6274 199.6285 15.50504180 5900
UTC large
Height (km)
Speed (km/s)
/
Latitude / Longitude
Inclination (degrees)
Orbital Period (minutes)
Azimuth
Elevation
Range (km)
Doppler Factor

Next 0 passes for location: London (51.5072 / 0.1276)

Sorry there are no passes over London.